timestamp,wind_dir_avg,wind_spd_avg,wind_spd_max_dir,wind_spd_gust,battery_voltage,lat,long
2022-08-07 00:04:00+00:00,215.0,4.78,213.0,5.42,12.65,47.59359,-54.27349
2022-08-07 00:14:00+00:00,226.0,3.79,224.0,4.48,12.49,47.59359,-54.27349
2022-08-07 00:24:00+00:00,227.0,3.75,229.0,4.2,12.49,47.59359,-54.27349
2022-08-07 00:34:00+00:00,218.0,2.62,222.0,3.32,12.49,47.59359,-54.27349
2022-08-07 00:44:00+00:00,217.0,2.17,224.0,2.49,12.49,47.59359,-54.27349
2022-08-07 00:54:00+00:00,189.0,2.28,196.0,2.68,12.49,47.59359,-54.27349
2022-08-07 01:04:00+00:00,193.0,1.66,202.0,1.97,12.49,47.59359,-54.27349
2022-08-07 01:14:00+00:00,122.0,2.61,123.0,3.12,12.41,47.59359,-54.27349
2022-08-07 01:24:00+00:00,142.0,3.18,145.0,3.44,12.41,47.59359,-54.27349
2022-08-07 01:34:00+00:00,157.0,3.33,159.0,3.83,12.41,47.59359,-54.27349
2022-08-07 01:44:00+00:00,183.0,3.57,181.0,4.14,12.41,47.59359,-54.27349
2022-08-07 01:54:00+00:00,163.0,3.39,164.0,3.52,12.41,47.59359,-54.27349
2022-08-07 02:04:00+00:00,170.0,3.79,167.0,4.2,12.41,47.59359,-54.27349
2022-08-07 02:14:01+00:00,159.0,4.02,163.0,4.57,12.41,47.59359,-54.27349
2022-08-07 02:24:01+00:00,158.0,3.43,158.0,3.86,12.41,47.59359,-54.27349
2022-08-07 02:34:01+00:00,168.0,4.04,172.0,4.38,12.41,47.59359,-54.27349
2022-08-07 02:44:01+00:00,175.0,3.69,176.0,3.97,12.41,47.59359,-54.27349
2022-08-07 02:54:01+00:00,183.0,3.85,183.0,4.28,12.41,47.59359,-54.27349
2022-08-07 03:04:01+00:00,185.0,4.43,184.0,4.86,12.41,47.59359,-54.27349
2022-08-07 03:14:01+00:00,223.0,3.67,233.0,4.88,12.49,47.59359,-54.27349
2022-08-07 03:24:01+00:00,239.0,3.85,238.0,4.19,12.49,47.59359,-54.27349
2022-08-07 03:34:01+00:00,228.0,4.31,228.0,4.96,12.49,47.59359,-54.27349
2022-08-07 03:44:01+00:00,230.0,3.63,225.0,4.0,12.49,47.59359,-54.27349
2022-08-07 03:54:01+00:00,235.0,3.52,237.0,3.77,12.49,47.59359,-54.27349
2022-08-07 04:04:01+00:00,235.0,3.07,239.0,3.63,12.49,47.59359,-54.27349
2022-08-07 04:14:01+00:00,221.0,4.05,231.0,4.9,12.41,47.59359,-54.27349
2022-08-07 04:24:01+00:00,224.0,3.88,236.0,6.07,12.41,47.59359,-54.27349
2022-08-07 04:34:01+00:00,219.0,5.43,226.0,6.45,12.41,47.59359,-54.27349
2022-08-07 04:44:01+00:00,214.0,6.33,215.0,6.83,12.41,47.59359,-54.27349
2022-08-07 04:54:01+00:00,217.0,5.2,228.0,6.15,12.41,47.59359,-54.27349
2022-08-07 05:04:01+00:00,215.0,6.15,215.0,7.04,12.41,47.59359,-54.27349
2022-08-07 05:14:00+00:00,219.0,5.44,228.0,6.72,12.33,47.59359,-54.27349
2022-08-07 05:24:00+00:00,213.0,7.15,212.0,8.23,12.33,47.59359,-54.27349
2022-08-07 05:34:00+00:00,214.0,7.64,214.0,8.35,12.33,47.59359,-54.27349
2022-08-07 05:44:00+00:00,213.0,7.21,218.0,8.14,12.33,47.59359,-54.27349
2022-08-07 05:54:00+00:00,215.0,6.73,214.0,7.34,12.33,47.59359,-54.27349
2022-08-07 06:04:00+00:00,228.0,6.4,231.0,7.11,12.33,47.59359,-54.27349
2022-08-07 06:14:00+00:00,228.0,6.64,227.0,7.6,12.33,47.59359,-54.27349
2022-08-07 06:24:00+00:00,228.0,6.42,226.0,7.11,12.33,47.59359,-54.27349
2022-08-07 06:34:00+00:00,229.0,6.33,235.0,7.33,12.33,47.59359,-54.27349
2022-08-07 06:44:00+00:00,232.0,5.34,229.0,6.04,12.33,47.59359,-54.27349
2022-08-07 06:54:00+00:00,234.0,4.86,236.0,5.7,12.33,47.59359,-54.27349
2022-08-07 07:04:00+00:00,226.0,4.9,215.0,5.87,12.33,47.59359,-54.27349
2022-08-07 07:14:01+00:00,231.0,4.39,234.0,4.93,12.41,47.59359,-54.27349
2022-08-07 07:24:01+00:00,236.0,5.07,248.0,6.34,12.41,47.59359,-54.27349
2022-08-07 07:34:01+00:00,232.0,4.43,229.0,5.08,12.41,47.59359,-54.27349
2022-08-07 07:44:01+00:00,228.0,4.34,223.0,5.16,12.41,47.59359,-54.27349
2022-08-07 07:54:01+00:00,234.0,4.35,237.0,5.35,12.41,47.59359,-54.27349
2022-08-07 08:04:01+00:00,234.0,4.84,233.0,5.54,12.41,47.59359,-54.27349
2022-08-07 08:14:00+00:00,228.0,4.2,230.0,5.55,12.25,47.59359,-54.27349
2022-08-07 08:24:00+00:00,238.0,5.5,234.0,6.52,12.25,47.59359,-54.27349
2022-08-07 08:34:00+00:00,234.0,6.49,237.0,7.32,12.25,47.59359,-54.27349
2022-08-07 08:44:00+00:00,232.0,6.67,238.0,7.48,12.25,47.59359,-54.27349
2022-08-07 08:54:00+00:00,231.0,6.37,233.0,7.42,12.25,47.59359,-54.27349
2022-08-07 09:04:00+00:00,229.0,5.44,225.0,6.47,12.25,47.59359,-54.27349
2022-08-07 09:14:01+00:00,226.0,6.37,223.0,7.1,12.41,47.59359,-54.27349
2022-08-07 09:24:01+00:00,225.0,6.22,224.0,7.04,12.41,47.59359,-54.27349
2022-08-07 09:34:01+00:00,226.0,5.35,224.0,6.51,12.41,47.59359,-54.27349
2022-08-07 09:44:01+00:00,229.0,6.1,231.0,7.29,12.41,47.59359,-54.27349
2022-08-07 09:54:01+00:00,230.0,5.89,231.0,6.84,12.41,47.59359,-54.27349
2022-08-07 10:04:01+00:00,221.0,7.19,227.0,7.94,12.41,47.59359,-54.27349
2022-08-07 10:14:00+00:00,215.0,7.24,212.0,8.77,13.29,47.59359,-54.27349
2022-08-07 10:24:00+00:00,217.0,5.9,216.0,6.76,13.29,47.59359,-54.27349
2022-08-07 10:34:00+00:00,214.0,6.2,215.0,7.14,13.29,47.59359,-54.27349
2022-08-07 10:44:00+00:00,215.0,6.12,213.0,7.1,13.29,47.59359,-54.27349
2022-08-07 10:54:00+00:00,220.0,7.79,221.0,8.88,13.29,47.59359,-54.27349
2022-08-07 11:04:00+00:00,211.0,8.66,213.0,9.67,13.29,47.59359,-54.27349
2022-08-07 11:14:00+00:00,215.0,9.3,216.0,10.34,13.44,47.59359,-54.27349
2022-08-07 11:24:00+00:00,216.0,8.75,229.0,9.7,13.44,47.59359,-54.27349
2022-08-07 11:34:00+00:00,218.0,8.62,219.0,10.08,13.44,47.59359,-54.27349
2022-08-07 11:44:00+00:00,214.0,9.28,216.0,10.75,13.44,47.59359,-54.27349
2022-08-07 11:54:00+00:00,215.0,9.32,215.0,10.26,13.44,47.59359,-54.27349
2022-08-07 12:04:00+00:00,213.0,9.56,208.0,10.79,13.44,47.59359,-54.27349
2022-08-07 12:14:00+00:00,211.0,9.57,212.0,10.97,13.6,47.59359,-54.27349
2022-08-07 12:24:00+00:00,213.0,9.66,211.0,10.56,13.6,47.59359,-54.27349
2022-08-07 12:34:00+00:00,211.0,10.41,213.0,11.72,13.6,47.59359,-54.27349
2022-08-07 12:44:00+00:00,214.0,11.11,214.0,12.19,13.6,47.59359,-54.27349
2022-08-07 12:54:00+00:00,214.0,12.09,216.0,13.29,13.6,47.59359,-54.27349
2022-08-07 13:04:00+00:00,214.0,10.33,211.0,11.43,13.6,47.59359,-54.27349
2022-08-07 13:14:00+00:00,216.0,10.46,215.0,12.44,13.44,47.59359,-54.27349
2022-08-07 13:24:00+00:00,215.0,10.72,216.0,12.42,13.44,47.59359,-54.27349
2022-08-07 13:34:00+00:00,218.0,8.85,229.0,9.85,13.44,47.59359,-54.27349
2022-08-07 13:44:00+00:00,218.0,9.05,221.0,10.23,13.44,47.59359,-54.27349
2022-08-07 13:54:00+00:00,214.0,9.24,213.0,10.9,13.44,47.59359,-54.27349
2022-08-07 14:04:00+00:00,213.0,10.21,214.0,11.52,13.44,47.59359,-54.27349
2022-08-07 14:14:00+00:00,214.0,9.25,220.0,10.2,13.68,47.59359,-54.27349
2022-08-07 14:24:00+00:00,214.0,9.73,214.0,11.18,13.68,47.59359,-54.27349
2022-08-07 14:34:00+00:00,215.0,9.78,216.0,11.12,13.68,47.59359,-54.27349
2022-08-07 14:44:00+00:00,211.0,9.37,214.0,10.72,13.68,47.59359,-54.27349
2022-08-07 14:54:00+00:00,208.0,10.01,210.0,11.14,13.68,47.59359,-54.27349
2022-08-07 15:04:00+00:00,208.0,9.71,213.0,10.67,13.68,47.59359,-54.27349
2022-08-07 15:14:00+00:00,214.0,9.59,207.0,10.82,13.68,47.59359,-54.27349
2022-08-07 15:24:00+00:00,213.0,9.89,207.0,11.33,13.68,47.59359,-54.27349
2022-08-07 15:34:00+00:00,216.0,9.9,219.0,11.83,13.68,47.59359,-54.27349
2022-08-07 15:44:00+00:00,215.0,10.28,221.0,11.18,13.68,47.59359,-54.27349
2022-08-07 15:54:00+00:00,218.0,10.44,225.0,13.86,13.68,47.59359,-54.27349
2022-08-07 16:04:00+00:00,215.0,10.54,211.0,11.94,13.68,47.59359,-54.27349
2022-08-07 16:14:01+00:00,219.0,10.97,227.0,12.45,13.68,47.59359,-54.27349
2022-08-07 16:24:01+00:00,217.0,9.73,219.0,12.32,13.68,47.59359,-54.27349
2022-08-07 16:34:01+00:00,215.0,9.86,218.0,12.11,13.68,47.59359,-54.27349
2022-08-07 16:44:01+00:00,212.0,10.94,215.0,11.97,13.68,47.59359,-54.27349
2022-08-07 16:54:01+00:00,216.0,10.89,218.0,12.09,13.68,47.59359,-54.27349
2022-08-07 17:04:01+00:00,215.0,11.33,213.0,12.82,13.68,47.59359,-54.27349
2022-08-07 17:14:01+00:00,215.0,10.63,215.0,11.98,13.76,47.59359,-54.27349
2022-08-07 17:24:01+00:00,214.0,10.54,213.0,11.74,13.76,47.59359,-54.27349
2022-08-07 17:34:01+00:00,215.0,11.12,211.0,13.02,13.76,47.59359,-54.27349
2022-08-07 17:44:01+00:00,217.0,11.07,216.0,13.35,13.76,47.59359,-54.27349
2022-08-07 17:54:01+00:00,217.0,11.44,206.0,14.56,13.76,47.59359,-54.27349
2022-08-07 18:04:01+00:00,215.0,11.62,221.0,14.18,13.76,47.59359,-54.27349
2022-08-07 18:14:00+00:00,214.0,12.12,214.0,14.14,13.76,47.59359,-54.27349
2022-08-07 18:24:00+00:00,217.0,12.42,226.0,15.98,13.76,47.59359,-54.27349
2022-08-07 18:34:00+00:00,215.0,12.57,224.0,16.13,13.76,47.59359,-54.27349
2022-08-07 18:44:00+00:00,213.0,13.2,220.0,14.82,13.76,47.59359,-54.27349
2022-08-07 18:54:00+00:00,216.0,12.27,227.0,15.98,13.76,47.59359,-54.27349
2022-08-07 19:04:00+00:00,213.0,12.03,218.0,15.47,13.76,47.59359,-54.27349
2022-08-07 19:14:01+00:00,211.0,12.54,221.0,15.05,13.6,47.59359,-54.27349
2022-08-07 19:24:01+00:00,212.0,12.91,221.0,14.61,13.6,47.59359,-54.27349
2022-08-07 19:34:01+00:00,211.0,12.96,209.0,14.43,13.6,47.59359,-54.27349
2022-08-07 19:44:01+00:00,210.0,12.37,214.0,13.81,13.6,47.59359,-54.27349
2022-08-07 19:54:01+00:00,210.0,12.22,212.0,14.77,13.6,47.59359,-54.27349
2022-08-07 20:04:01+00:00,210.0,11.5,214.0,13.88,13.6,47.59359,-54.27349
2022-08-07 20:14:01+00:00,206.0,11.52,205.0,12.94,13.68,47.59359,-54.27349
2022-08-07 20:24:01+00:00,207.0,12.25,206.0,13.65,13.68,47.59359,-54.27349
2022-08-07 20:34:01+00:00,206.0,11.78,203.0,13.53,13.68,47.59359,-54.27349
2022-08-07 20:44:01+00:00,208.0,11.47,208.0,13.23,13.68,47.59359,-54.27349
2022-08-07 20:54:01+00:00,209.0,11.96,208.0,13.44,13.68,47.59359,-54.27349
2022-08-07 21:04:01+00:00,210.0,11.32,206.0,13.76,13.68,47.59359,-54.27349
2022-08-07 21:14:00+00:00,212.0,11.14,215.0,12.3,13.44,47.59359,-54.27349
2022-08-07 21:24:00+00:00,215.0,12.19,222.0,14.9,13.44,47.59359,-54.27349
2022-08-07 21:34:00+00:00,215.0,11.63,225.0,16.5,13.44,47.59359,-54.27349
2022-08-07 21:44:00+00:00,214.0,11.41,223.0,13.02,13.44,47.59359,-54.27349
2022-08-07 21:54:00+00:00,214.0,12.08,227.0,14.87,13.44,47.59359,-54.27349
2022-08-07 22:04:00+00:00,213.0,11.59,224.0,14.92,13.44,47.59359,-54.27349
2022-08-07 22:14:01+00:00,218.0,11.53,234.0,14.77,12.97,47.59359,-54.27349
2022-08-07 22:24:01+00:00,213.0,10.58,213.0,13.04,12.97,47.59359,-54.27349
2022-08-07 22:34:01+00:00,213.0,11.04,213.0,12.7,12.97,47.59359,-54.27349
2022-08-07 22:44:01+00:00,214.0,10.47,209.0,12.43,12.97,47.59359,-54.27349
2022-08-07 22:54:01+00:00,214.0,11.06,215.0,12.85,12.97,47.59359,-54.27349
2022-08-07 23:04:01+00:00,214.0,10.4,212.0,11.77,12.97,47.59359,-54.27349
2022-08-07 23:14:00+00:00,215.0,12.76,223.0,14.51,12.49,47.59359,-54.27349
2022-08-07 23:24:00+00:00,216.0,14.2,225.0,17.54,12.49,47.59359,-54.27349
2022-08-07 23:34:00+00:00,220.0,13.53,229.0,16.82,12.49,47.59359,-54.27349
2022-08-07 23:44:00+00:00,226.0,9.87,228.0,12.95,12.49,47.59359,-54.27349
2022-08-07 23:54:00+00:00,222.0,8.35,231.0,9.97,12.49,47.59359,-54.27349
